User: anonymous
Location: Del Oro Observatory
(38.3044°N, 104.8119°W)
Time: 00:23:15
(UTC-06:00)
Language:

Cosmos 1602 Rocket - Orbit

View from above orbital plane
View from above orbital plane
View from above satellite
View from above satellite

Ground track
Ground track

The orbit data is extracted from the following two-line orbital elements,

1 15332U 84105B   14294.41635112  .00000665  00000-0  79118-4 0  7912
2 15332 082.5374 014.3318 0020212 330.4350 134.4235 14.82822512622849
Epoch (UTC): 21 October 2014 09:59:32
Eccentricity: 0.0020212
inclination: 82.5374°
perigee height: 606 km
apogee height: 634 km
right ascension of ascending node: 14.3318°
argument of perigee: 330.4350°
revolutions per day: 14.82822512
mean anomaly at epoch: 134.4235°
orbit number at epoch: 62284

The dashed part of the orbit path shows where the satellite is in the earth's shadow,  

DLR